Location: Beverley
(50.2667°N, 107.9667°W)
Time: 13:13:46
(UTC+00:00)

CUTE 1.7 + AOD 2 - Visible Passes

Search period start: 28 June 2022 00:00
Search period end: 08 July 2022 00:00
Orbit: 590 x 607 km, 97.7° (Epoch: 27 June)

Date Brightness Start Highest point End Pass type
(mag) Time Alt. Az. Time Alt. Az. Time Alt. Az.
29 Jun ? 09:50:43 10° ENE 09:52:34 13° E 09:54:25 10° ESE visible
30 Jun ? 10:00:54 10° NE 10:03:31 16° E 10:06:07 10° SE visible
01 Jul ? 10:11:17 10° NE 10:14:26 20° E 10:17:33 10° SE visible
02 Jul ? 10:21:50 10° NE 10:25:20 25° E 10:28:49 10° SSE visible
07 Jul ? 09:42:43 10° E 09:43:08 10° E 09:43:33 10° E visible
